Weather in Bikbulovo

Russia / Republic of Tatarstan     55°39′10″N   53°26′20″E
temp.,
°C
wind,
m/s
gust,
m/s
humid.,
%
clouds,
%
prec.,
mm/h
press.,
hPa
HPBL,
m
14 august, sun
sun1400:00+14nne336671 0.0 102135
03:00+12ne227437 0.0 102226
06:00+14ne35655 0.0 1022161
09:00+20ne33475 0.0 1022766
12:00+22ne343610 0.0 10221633
15:00+23nne333586 0.0 10221931
18:00+20n22514 0.0 102122
21:00+15ene22580 0.0 102211
15 august, mon
mon1500:00+14s11620 0.0 102311
03:00+13sw116340 0.0 102311
06:00+16ssw125798 0.0 102483
09:00+20w124939 0.0 1024391
12:00+24wsw23417 0.0 10231829
15:00+25w234087 0.0 10222158
18:00+21nw2356100 0.0 102264
21:00+17ne34640 0.0 102362
16 august, tue
tue1600:00+16ene356317 0.0 102470
03:00+14ne33630 0.0 102535
06:00+16ene24640 0.0 1026136
09:00+21ne33450 0.0 1026705
12:00+24ne23353 0.0 10251515
15:00+25nne23345 0.0 10251919
18:00+22nne225071 0.0 102411
21:00+17nne115650 0.0 102511
17 august, wed
wed1700:00+16nne0060100 0.0 102511
03:00+15nne116493 0.0 102511
06:00+17ene1161100 0.0 102561
09:00+22n1151100 0.0 1024456
12:00+25nw2241100 0.0 10231418
15:00+26nw2340100 0.0 10221968
18:00+23wnw225433 0.0 102114
21:00+21wnw2353100 0.0 102141
18 august, thu
thu1800:00+19n346388 0.0 102173
03:00+15ne3793100 0.1 1022155
06:00+15ene57820 0.0 1023306
09:00+19ene56570 0.0 1024719
12:00+22ne564086 0.0 10241363
15:00+22ne56347 0.0 10241602
18:00+18ne35490 0.0 1025101
21:00+13ene38520 0.0 1026143